Regional Weather Roundup
Issued by NWS

Home | Current Version | Previous Version | Graphics & Text | Print | Product List | Glossary On
Versions: 1 2 3 4 5 6 7 8 9 10 11 12 13 14 15 16 17 18 19 20 21 22 23 24 25 26 27 28 29 30 31 32 33 34 35 36 37 38 39 40 41 42 43 44 45 46 47 48 49 50
668
ASUS43 KBIS 112110
RWRND

NORTH DAKOTA REGIONAL WEATHER ROUNDUP
NATIONAL WEATHER SERVICE BISMARCK ND
300 PM CST THU FEB 11 2016

NOTE: "FAIR" INDICATES FEW OR NO CLOUDS BELOW 12,000 FEET WITH NO
SIGNIFICANT WEATHER AND/OR OBSTRUCTIONS TO VISIBILITY.


NDZ001>003-009>011-017-112200-
NORTHWEST NORTH DAKOTA

CITY           SKY/WX    TMP DP  RH WIND       PRES   REMARKS
WILLISTON      CLOUDY    25  18  74 N7        30.19R WCI  17
MINOT          CLOUDY    22  11  62 NW7       30.18S WCI  13
$$

NDZ018>021-031>035-040>046-112200-
SOUTHWEST NORTH DAKOTA

CITY           SKY/WX    TMP DP  RH WIND       PRES   REMARKS
BISMARCK       LGT SNOW  27  18  69 NE6       30.14S
DICKINSON      LGT SNOW  24  19  81 NE7       30.07S WCI  16
GARRISON         N/A     20  13  74 N5        30.15R WCI  13
HETTINGER ARPT CLOUDY    28  24  85 N8        30.08R WCI  20
$$

NDZ004>008-012>016-024-026-027-054-112200-
NORTHEAST NORTH DAKOTA

CITY           SKY/WX    TMP DP  RH WIND       PRES   REMARKS
GRAND FORKS    CLOUDY    15   7  70 W7        30.22S WCI   5
GRND FRKS AFB  CLOUDY    15   6  68 W6        30.21S WCI   6
DEVILS LAKE    FLURRIES  12   6  77 N8        30.19R WCI   0
$$

NDZ022-023-025-028>030-036>039-047>053-112200-
SOUTHEAST NORTH DAKOTA

CITY           SKY/WX    TMP DP  RH WIND       PRES   REMARKS
FARGO          CLOUDY    15   1  53 NW3       30.21S
JAMESTOWN      CLOUDY    16  10  77 N6        30.15S WCI   7
$$





USA.gov is the U.S. government's official web portal to all federal, state and local government web resources and services.